Weather in Bihac

Bosnia and Herzegovina     44°48′58″N   15°52′49″E
temp.,
°C
wind,
m/s
gust,
m/s
humid.,
%
clouds,
%
prec.,
mm/h
press.,
hPa
HPBL,
m
20 april, tue
tue2023:00+3nw1199100 0.1 1016118
02:00+3nnw1399100 0.2 1016435
05:00+3nnw1398100 0.3 1016431
08:00+3nw129894 0.3 1017202
11:00+7n227862 0.1 1016797
14:00+10n226153 0.6 10151267
17:00+10n126571 0.8 10141027
20:00+5ssw108615 0.9 101610
21 april, wed
wed2123:00+4ssw11915 0.0 101812
02:00+3ssw22935 0.0 101831
05:00+2ssw23945 0.0 101845
08:00+6ssw23835 0.0 1018193
11:00+12sw23557 0.0 10171310
14:00+13ssw345598 0.8 10171664
17:00+12ssw455529 0.2 10171566
20:00+6ssw338411 0.2 101855
22 april, thu
thu2223:00+5ssw3493100 0.0 102081
02:00+4ssw3493100 0.0 102084
05:00+4ssw3492100 0.0 102080
08:00+7ssw3574100 0.0 1019212
11:00+9ssw357797 0.3 1019848
14:00+12ssw3763100 0.6 10181352
17:00+9ssw377987 0.1 10181014
20:00+7ssw238982 0.1 1018123
23 april, fri
fri2323:00+7ssw229299 0.0 102058
02:00+6nne1297100 0.1 1021144
05:00+5nne2498100 0.4 1022532
08:00+3nne2595100 0.7 1025613
11:00+5ne2385100 0.1 1025686
14:00+8ene236794 0.1 10231047
17:00+9ne346156 0.0 10221116
20:00+7ne127160 0.0 102450
24 april, sat
sat2423:00+3ene11901 0.0 102512
02:00+2ne119282 0.0 102519
05:00+1nne22965 0.0 102530
08:00+5nne25795 0.0 1025423
11:00+10ne47555 0.0 10241360
14:00+12ne464613 0.0 10211654
17:00+12ene35482 0.0 10201544
20:00+6ene117652 0.0 102112